Location: LDNL
(36.4545°S, 141.6685°E)
Time: 21:39:08
(UTC+11:00)

Courier 1B Rocket - Pass Details

Date: 04 February 2023
Orbit: 920 x 1202 km, 28.2° (Epoch: 26 March)

Event Time Altitude Azimuth Distance (km) Brightness Sun altitude
Rises 08:58:20 0° 277° (W) 4,106 7.7 23.8°
Reaches altitude 10° 09:01:22 10° 283° (WNW) 3,141 7.2 24.4°
Maximum altitude 09:08:39 42° 350° (N) 1,630 6.4 25.9°
Drops below altitude 10° 09:15:41 10° 58° (ENE) 3,038 8.6 27.3°
Sets 09:18:34 0° 64° (ENE) 3,959 9.1 27.9°
